Regional Weather Roundup
Issued by NWS

Home | Current Version | Previous Version | Text Only | Print | Product List | Glossary Off
Versions: 1 2 3 4 5 6 7 8 9 10 11 12 13 14 15 16 17 18 19 20 21 22 23 24 25 26 27 28 29 30 31 32 33 34 35 36 37 38 39 40 41 42 43 44 45 46 47 48 49 50

000
ASUS43 KOAX 302102
RWRNE

WEATHER ROUNDUP FOR NEBRASKA
NATIONAL WEATHER SERVICE OMAHA NE
300 PM CST FRI JAN 30 2015

NOTES: SATELLITE DATA IS BEING USED TO AUGMENT CLOUD COVER ABOVE
       12000 FEET.
       "FAIR" INDICATES FEW OR NO CLOUDS BELOW 12,000 FEET WITH NO
       SIGNIFICANT WEATHER AND/OR OBSTRUCTIONS TO VISIBILITY.

  * THESE STATIONS DO NOT REPORT WEATHER SUCH AS RAIN...SNOW OR FOG.

NEZ001>004-019>022-054>056-302200-
NEBRASKA PANHANDLE

CITY           SKY/WX    TMP DP  RH WIND       PRES   REMARKS
SCOTTSBLUFF    CLOUDY    43  29  57 NW6       30.12F
ALLIANCE       CLOUDY    48  25  40 N3        30.11F
CHADRON        PTSUNNY   50  28  42 W5        30.13F
SIDNEY         CLOUDY    45  27  49 CALM      30.11F
$$

NEZ057>060-069>072-079>082-302200-
SOUTHWEST NEBRASKA

CITY           SKY/WX    TMP DP  RH WIND       PRES   REMARKS
NORTH PLATTE   CLOUDY    48  26  42 S15       30.18F
IMPERIAL       CLOUDY    52  32  46 S20G28    30.14F
MCCOOK         CLOUDY    48  27  44 S12       30.21F
$$

NEZ005>010-023>029-035>040-094-302200-
NORTH CENTRAL NEBRASKA

CITY           SKY/WX    TMP DP  RH WIND       PRES   REMARKS
VALENTINE      MOSUNNY   53  25  33 SW13      30.13F
BROKEN BOW     CLOUDY    47  27  45 S18G25    30.20F
ORD            CLOUDY    45  24  43 S15       30.22F
$$

NEZ041-046>049-061>064-073>077-083>087-302200-
SOUTH CENTRAL NEBRASKA

CITY           SKY/WX    TMP DP  RH WIND       PRES   REMARKS
GRAND ISLAND   PTSUNNY   45  25  45 S17       30.29F
HASTINGS       PTSUNNY   44  23  43 S13       30.29F
KEARNEY *      CLOUDY    45  25  45 S18       30.27F
$$

NEZ011>018-030>034-042>045-302200-
NORTHEAST NEBRASKA

CITY           SKY/WX    TMP DP  RH WIND       PRES   REMARKS
NORFOLK        MOSUNNY   44  27  51 S23       30.26F
COLUMBUS *     CLOUDY    41  27  56 S15       30.32F
TEKAMAH        SUNNY     40  25  55 S16       30.35F WCI  31
$$

NEZ050>053-065>068-078-088>093-302200-
SOUTHEAST NEBRASKA

CITY           SKY/WX    TMP DP  RH WIND       PRES   REMARKS
LINCOLN        CLOUDY    41  25  53 S14       30.37F
OMAHA EPPLEY   PTSUNNY   37  23  56 S13       30.38F WCI  29
FALLS CITY     PTSUNNY   39  23  52 S9        30.42F WCI  33
$$

NEZ044-045-051>053-067-302200-
OMAHA AREA

CITY           SKY/WX    TMP DP  RH WIND       PRES   REMARKS
OMAHA EPPLEY   PTSUNNY   37  23  56 S13       30.38F WCI  29
OFFUTT AFB     PTSUNNY   36  23  58 S13       30.38F WCI  28
$$



USA.gov is the U.S. government's official web portal to all federal, state and local government web resources and services.